Location: Quedlinburg
(51.7921°N, 11.1414°E)
Time: 09:40:57
(UTC+02:00)

RS-44 - Pass Details

Date: 17 March 2026
Orbit: 1175 x 1510 km, 82.5° (Epoch: 17 April)

Event Time Altitude Azimuth Distance (km) Brightness Sun altitude
Rises 23:38:37 0° 348° (NNW) 4,367 ? -38.4°
Reaches altitude 10° 23:42:58 10° 10° (N) 3,460 ? -38.5°
Maximum altitude 23:47:39 16° 45° (NE) 3,091 ? -38.7°
Drops below altitude 10° 23:52:28 10° 80° (E) 3,583 ? -38.8°
Enters shadow 23:53:12 - 84° (E) 3,717 ? -38.9°
